Regional Weather Roundup
Issued by NWS

Home | Current Version | Previous Version | Text Only | Print | Product List | Glossary On
Versions: 1 2 3 4 5 6 7 8 9 10 11 12 13 14 15 16 17 18 19 20 21 22 23 24 25 26 27 28 29 30 31 32 33 34 35 36 37 38 39 40 41 42 43 44 45 46 47 48 49 50
000
ASUS46 KLOX 092113
RWRCA

SOUTHERN CALIFORNIA WEATHER ROUNDUP
NATIONAL WEATHER SERVICE OXNARD CALIFORNIA
100 PM PST TUE FEB 09 2016

NOTE: "FAIR" INDICATES FEW OR NO CLOUDS BELOW 12,000 FEET WITH NO
SIGNIFICANT WEATHER AND/OR OBSTRUCTIONS TO VISIBILITY.

  -  STATIONS PRECEEDED BY AN ASTERISK (*) ARE NOT NWS OR FAA
     STATIONS AND ARE NOT SUBJECT TO NWS AND FAA QUALITY CONTROL.

CAZ041-042-087-092200-
LA AND ORANGE COUNTY COASTAL AREAS


CITY           SKY/WX    TMP DP  RH WIND       PRES   REMARKS
L.A. DOWNTOWN  SUNNY     88  24  10 CALM      30.08F
L.A. AIRPORT   MOSUNNY   87  24  10 W3        30.08F
LONG BEACH     SUNNY     89  33  13 VRB3      30.08F

CITY           SKY/WX    TMP DP  RH WIND       PRES   REMARKS
FULLERTON      SUNNY     91  26   9 E6        30.07F
HAWTHORNE      SUNNY     89  17   7 CALM      30.08F
*LEO CARRILLO    N/A     81  32  17 S2          N/A
*LOS ALAMITOS  SUNNY     89  27  10 N6        30.07F
*REDONDO BEACH   N/A     86  45  23 CALM      30.08F
SANTA ANA      SUNNY     88  27  11 N3        30.07F
STA MONICA APT SUNNY     85  30  13 SW7       30.09F
TORRANCE       SUNNY     90  32  12 CALM      30.09F
*UCLA            N/A     88  25  10 S3        30.06F

$$

CAZ547-548-048-092200-
LA COUNTY VALLEYS AND INLAND EMPIRE


CITY           SKY/WX    TMP DP  RH WIND       PRES   REMARKS
BURBANK        SUNNY     85  21   9 VRB6      30.10F
VAN NUYS       SUNNY     86  26  11 N5        30.11F

CITY           SKY/WX    TMP DP  RH WIND       PRES   REMARKS
CORONA AIRPORT CLEAR     87  29  12 E12G22    30.10F
*CHATSWORTH      N/A     85  31  14 N6        30.10F
CHINO          SUNNY     88  24  10 CALM      30.11F
*CLAREMONT       N/A     83  27  13 SW5         N/A
MARCH AFB      SUNNY     82  27  13 NW5       30.14F
*NORTHRIDGE      N/A     84  21  10 NW7G15      N/A
ONTARIO        MOSUNNY   84  21  10 CALM      30.12F
*PASADENA        N/A     88  32  13 E5          N/A
POMONA         SUNNY     82  30  15 W7        30.15
RIVERSIDE      SUNNY     86  22   9 NE12G20   30.12F
SAN BERNARDINO SUNNY     82  25  12 CALM      30.14F
*SAN GABRIEL     N/A     87  22   9 W3        30.14F
*SAN RAFAEL HI   N/A     86  21   9 E7          N/A
*SAUGUS          N/A     78  21  12 N17         N/A
*WHITEMAN AP   NOT AVBL
*WHITTIER HILL   N/A     87  24  10 S6          N/A
*WOODLAND HILL   N/A     86  23  10 VRB7        N/A

$$

CAZ054-055-092200-
LA AND SAN BERNARDINO COUNTY MOUNTAINS


CITY           SKY/WX    TMP DP  RH WIND       PRES   REMARKS
*BIG BEAR AIRP CLEAR     57  18  21 NE9       30.41F
*CHILAO          N/A     70  20  15 NE10        N/A
SANDBERG       SUNNY     66  21  18 E21       30.35F
*WARM SPRINGS    N/A     77  58  51 E21         N/A

$$

CAZ028-029-059-060-099-092200-
ANTELOPE VALLEY AND SURROUNDING AREAS


CITY           SKY/WX    TMP DP  RH WIND       PRES   REMARKS
LANCASTER      SUNNY     71  26  18 NE6       30.28F
PALMDALE       SUNNY     70  27  20 N9        30.29F
*POPPY PARK      N/A     70  32  24 E7          N/A

CITY           SKY/WX    TMP DP  RH WIND       PRES   REMARKS
29 PALMS       SUNNY     75  19  12 N5        30.30F
BARSTOW/DAGGET SUNNY     74  21  13 E8        30.27F
BISHOP         SUNNY     68  15  13 CALM      30.34F
CHINA LAKE     SUNNY     72  25  17 VRB5      30.27F
EDWARDS AFB    MOSUNNY   70  20  15 N3        30.26F
MOJAVE         SUNNY     68  25  19 CALM      30.30F
NEEDLES        SUNNY     78  25  14 N25G32    30.20F
VICTORVILLE    SUNNY     72  19  14 CALM      30.29F

$$

CAZ039-040-092200-
VENTURA AND SANTA BARBARA COUNTY COAST


CITY           SKY/WX    TMP DP  RH WIND       PRES   REMARKS
CAMARILLO      SUNNY     90  24   9 NE17      30.08F
NWS OXNARD       N/A     89  25  10 E12       30.07F
OXNARD AIRPORT SUNNY     91  27  10 NE12      30.08F
*POINT MUGU    MOSUNNY   80  36  20 S10       30.09F
SBA APT/GOLETA SUNNY     81  33  17 W8        30.09F
*SANTA BARBARA   N/A     89  28  11 CALM      30.16F
*VENTURA         N/A     92  28  10 NE5       30.06F

$$

CAZ044-045-092200-
VENTURA COUNTY VALLEYS


CITY           SKY/WX    TMP DP  RH WIND       PRES   REMARKS
*SIMI VALLEY     N/A     83  31  15 NE9       30.04F
*WESTLAKE VILL   N/A     86  40  20 NE3       30.10F
*OJAI            N/A     89  37  15 W1        30.04F
*FILLMORE        N/A     89  41  18 E6        29.97F

$$

CAZ053-092200-
VENTURA COUNTY MOUNTAINS


CITY           SKY/WX    TMP DP  RH WIND       PRES   REMARKS
*LOCKWOOD VLY    N/A     64  18  16 SE7         N/A
*ROSE VALLEY     N/A     79  21  11 MISG        N/A

$$

CAZ034-035-036-092200-
CENTRAL COAST AND SANTA YNEZ VALLEY


CITY           SKY/WX    TMP DP  RH WIND       PRES   REMARKS
SAN LUIS OBISP MOSUNNY   84  44  24 W3        30.12F
SANTA MARIA    MOSUNNY   83  43  24 VRB3      30.13F

CITY           SKY/WX    TMP DP  RH WIND       PRES   REMARKS
*CAL POLY SLO    N/A     82  46  28 S5          N/A
*PISMO BEACH     N/A     70  47  44 W3        30.12F
*SANTA YNEZ    FAIR      81  36  19 CALM      30.12F

$$

CAZ037-038-051-092200-
SAN LUIS OBISPO COUNTY INTERIOR AND CUYAMA VALLEY


CITY           SKY/WX    TMP DP  RH WIND       PRES   REMARKS
*CUYAMA          N/A     76  32  20 SW3       30.14F
PASO ROBLES    SUNNY     69  46  43 CALM      30.18F

$$

CAZ032-033-061-092200-
SOUTHERN DESERTS


CITY           SKY/WX    TMP DP  RH WIND       PRES   REMARKS
BLYTHE         SUNNY     81  25  12 N15       30.16F
IMPERIAL       SUNNY     83  25  12 VRB5      30.12F
PALM SPRINGS   SUNNY     86  23  10 CALM      30.15F
THERMAL        SUNNY     89  22   8 N6        30.10F

$$

ELSEWHERE ACROSS THE WESTERN UNITED STATES AND MEXICO


CITY           SKY/WX    TMP DP  RH WIND       PRES   REMARKS
DENVER, CO     MOSUNNY   53  16  23 CALM      30.28F
GRAND CANYON,  SUNNY     55  12  18 NE13      30.43F
HONOLULU, HI   MOSUNNY   75  54  46 S6        30.09S
KAHULUI, MAUI  SUNNY     79  55  44 MISG      30.08F
LAKE TAHOE, CA SUNNY     49  27  42 NE9       30.41F
LAS VEGAS, NV  SUNNY     68  25  19 CALM      30.28F
MAMMOTH LAKES, FAIR      52  27  37 SE5       30.47F
MEXICO CITY, M CLOUDY    61  27  27 N6        30.34F
PHOENIX, AZ    SUNNY     84  18   8 NE14      30.11F
PORTLAND, OR   MOSUNNY   59  38  45 SE15G21   30.17F
RENO, NV       PTSUNNY   55  32  41 W3        30.39F
SALT LAKE CITY SUNNY     39  28  64 NW6       30.53F HAZE    WCI  35
SAN DIEGO, CA  SUNNY     80  34  19 NW5       30.09F
SAN FRANCISCO, PTSUNNY   64  51  62 E7        30.14F
SAN JOSE, CA   PTSUNNY   72  44  36 CALM      30.14F
SEATTLE, WA    PTSUNNY   60  46  59 W5        30.15F
TIJUANA, MEX   SUNNY     86  27  11 CALM      30.11F

$$

STATION/POSITION TIME  TEMP    WIND        PRES    VSBY  WAVE
                       AIR SEA DIR/SP/G                  HT/PER
                 (UTC) (F)     (DEG/KT/KT) (MB)    (MI)  (FT/S)
POINT ARGUELLO B NOT AVBL
WEST SANTA BARBA 2050   65 58  350/  6/  6 1019.1F         6/15
POINT CONCEPTION NOT AVBL
EAST SANTA BARBA 2000   67 58   CALM  /  2 1020.5F
SANTA MONICA BAY 2050   66 63   CALM  /  2 1019.2F         3/16


USA.gov is the U.S. government's official web portal to all federal, state and local government web resources and services.